CAPE
0 0 0 0 0 0 30 17 3 80 0 425 562 637 671 658 697 1437 2064 1472 279 0 301 1350 2326 2570 2309 1788 1643 1588 1527 1777 2083 2041 1710 1327 1133 996 1541 2085 2050 1687 842 559 489 270 103 0 0
0 0 0 0 0 19 44 4 70 342 289 492 655 590 596 836 714 1866 1744 650 200 4 303 838 2187 2451 2327 1935 1810 1737 1851 1971 2033 1874 1451 1032 982 1049 1453 2054 2041 1558 1020 744 563 359 159 45 0
0 0 0 0 0 33 0 1 0 166 264 434 579 665 774 1099 1047 1655 1613 639 123 14 96 1389 2238 2283 2288 2114 1930 1864 1922 1959 1932 1728 1351 946 948 1290 1761 2088 2007 1518 1068 902 612 469 286 182 97
0 0 0 0 0 61 6 0 0 4 193 344 476 926 904 656 1443 1808 1344 555 260 39 66 1650 2154 2163 2198 2144 2008 1931 1929 1903 1822 1601 1219 1091 982 1422 1833 1844 2022 1908 1369 1114 898 592 465 301 194
0 0 0 0 0 27 0 0 0 0 305 344 456 970 1190 1021 1593 1996 974 553 259 74 361 1195 2087 2062 2022 1854 1922 1894 1809 1746 1683 1522 1172 1082 1279 1500 1640 1742 1613 1581 1453 1384 1338 917 627 478 372
0 0 0 0 0 0 0 0 0 0 15 367 482 465 984 1263 1736 1447 872 650 279 217 516 608 1820 2012 1899 1925 1874 1758 1664 1622 1591 1413 1283 1359 1411 1571 1518 1511 1527 1640 1699 1701 1382 1355 1115 849 677
0 0 0 0 0 0 0 0 0 0 0 251 499 532 1136 1469 1809 1972 1689 1125 551 305 314 221 335 1090 1854 1857 1754 1673 1598 1580 1499 1386 1295 1297 1382 1429 1371 1347 1340 1378 1426 1628 1605 1295 996 758 716
0 0 0 0 0 0 0 0 0 13 6 342 521 453 1026 1726 1888 1984 1885 1321 834 402 308 105 118 169 188 379 1572 1603 1543 1532 1475 1437 1289 1180 1005 954 1080 1391 1148 1005 1231 1435 1640 1309 854 667 541
0 0 0 0 0 0 0 0 0 4 88 49 221 920 1166 1839 2042 1929 1795 1559 1060 536 365 207 81 59 65 83 647 1290 1056 1157 1357 1116 1144 665 0 47 428 644 1226 855 887 1070 1417 1415 1210 929 701
0 0 0 0 0 0 0 0 0 0 25 168 365 1586 1334 1814 1948 2193 2157 1480 1208 684 333 221 207 184 75 68 558 246 243 247 143 81 324 134 121 263 231 445 772 696 668 864 1092 1347 1500 1114 895
0 0 0 0 0 0 0 0 0 0 2 159 282 817 1246 1742 1639 1992 1981 1910 1220 767 514 337 497 1036 230 160 506 137 231 249 309 619 891 474 304 509 177 493 174 8 368 173 630 829 882 657 619
0 0 0 0 0 0 0 0 0 0 1 193 389 1004 1183 1614 1607 1669 1508 1566 1198 720 639 515 689 1426 1096 555 566 367 319 440 640 751 1199 1619 871 810 528 226 339 232 152 7 193 257 545 479 989
0 0 0 0 0 0 0 0 0 0 0 195 13 338 942 1340 1676 1664 1389 988 1227 836 771 719 1092 1652 1831 1351 821 793 593 592 804 1053 1272 1299 1207 1025 832 603 440 315 263 150 82 16 41 270 359
0 0 0 0 0 0 0 0 0 0 0 14 0 58 606 1088 1501 1624 1283 1107 1331 1114 1065 1008 1198 2292 2063 2371 2311 1138 1066 1095 1059 1034 1237 1529 1411 1705 1054 885 772 520 338 216 169 216 308 375 236
0 0 0 0 0 0 0 0 0 0 0 0 0 0 124 816 1429 1664 1434 1713 1978 1728 1415 1359 1456 1904 2478 2174 1994 2000 1373 1261 1175 1159 1696 1775 2038 1852 1984 1019 916 662 660 372 561 1024 905 1054 853
0 0 0 0 0 0 0 0 0 0 0 0 0 0 0 176 851 1610 1867 2084 2291 2312 2119 1907 1523 1598 2289 2135 2127 1645 1434 2060 1413 1443 1523 1721 1769 1813 2267 1229 1145 863 967 691 837 1419 1357 1383 915
0 0 0 0 0 0 0 0 0 0 0 0 0 0 0 0 37 806 1585 1602 2278 2889 2646 2581 2475 2030 2114 2764 2061 2152 2715 1810 1545 1552 1653 2712 1989 1809 2255 1532 1200 1391 1024 759 756 838 1431 1513 1471
0 0 0 0 0 0 0 0 0 0 0 0 0 0 0 0 4 115 324 475 1375 2467 3163 3610 3507 3403 3240 3029 2735 1996 1853 1777 1761 1745 1741 2763 2281 2004 2372 1635 1968 1841 1312 764 841 2125 1634 1324 949
0 0 0 0 0 0 0 0 0 0 0 0 0 0 0 0 11 87 254 294 84 915 2811 2979 3373 4346 4023 3104 3049 2821 2393 2290 1897 1727 2453 2413 2282 2238 3045 1941 2154 2335 2281 1793 2759 1651 1854 1384 1153
0 0 0 0 0 0 0 0 0 0 0 0 0 0 0 7 77 245 491 586 588 470 622 1506 2662 3734 4008 3600 3916 3339 2969 2239 2103 1776 2433 2411 2340 2696 2855 2927 2553 3314 1976 2888 2403 2438 1419 1073 1341
0 0 0 0 0 0 0 0 5 0 0 0 0 0 0 24 134 234 305 558 721 901 855 648 784 2211 4035 4633 4095 4193 3420 3402 2255 1910 2046 2824 2619 2636 3206 2768 3033 3285 2653 832 2591 2226 2114 991 1489
0 0 0 0 1 5 0 0 22 0 0 0 0 0 0 12 61 127 187 206 298 678 915 1143 932 855 1100 3567 3943 4581 3231 2656 2195 1978 1737 2972 3218 2864 2796 3041 3022 3490 1845 2289 2154 2008 1986 2233 1625
0 0 1 9 6 11 1 9 10 62 18 4 0 0 0 0 0 0 14 32 36 104 447 1080 1725 1528 924 1026 3390 3254 3798 2488 2174 1903 3473 3693 4543 3241 2961 3070 3054 3250 2553 2686 2784 2640 2728 2087 1716
1 0 10 26 46 39 16 62 75 154 51 49 0 0 0 0 0 0 0 0 6 16 95 330 1045 1734 2090 1627 1359 3012 3500 3815 3225 2881 2384 3005 2906 3472 3679 2521 3496 3778 3325 2381 2138 2771 2204 2668 2057
9 37 47 93 88 24 47 86 62 76 152 41 0 0 0 0 0 0 0 0 3 15 20 56 304 657 1328 1868 2062 1897 2402 3239 3899 4135 3097 3114 2860 2768 3498 3617 3776 3029 3199 2454 2758 2849 2737 2794 2044
96 70 103 129 158 117 75 63 151 207 104 33 0 0 0 0 0 0 0 0 0 3 47 55 98 167 313 747 1413 2157 2395 2123 2365 3066 3397 3454 2682 2910 3448 3846 3799 3213 2517 2409 3209 2496 2377 2586 1872
207 230 174 230 166 201 93 45 24 3 0 0 0 0 0 0 0 0 0 0 0 0 10 27 62 115 153 224 422 920 1654 2088 2527 2837 3274 2813 3834 2827 3537 4031 3681 3390 2933 2782 3349 2478 3013 2608 2869
194 111 222 340 199 226 175 242 269 18 0 0 0 0 0 0 0 0 0 0 0 0 0 0 5 8 51 98 172 342 583 941 1541 1839 2487 2860 3431 3202 3910 3390 3642 3710 3175 2982 3583 2706 3110 2952 2182
48 202 61 115 149 177 218 239 146 197 27 0 0 0 0 0 0 0 0 0 0 0 0 0 0 0 0 4 54 86 193 363 575 805 1263 1300 1580 2345 3115 2997 2714 3095 3400 3086 3475 3154 2610 2797 3032
17 0 0 40 227 26 317 90 0 15 0 10 1 0 0 0 0 0 0 0 0 0 0 0 0 0 0 0 0 6 90 134 261 359 494 622 896 779 1049 2310 2766 2730 2888 3249 3288 3537 1780 2623 2971
CIN
-0 -0 -0 -0 -0 -0 -0 -0 -0 -1 -0 -43 -51 -8 -18 -12 -0 -4 -62 -67 -103 -0 -244 -164 -57 -46 -44 -104 -93 -91 -80 -36 -5 -4 -8 -22 -35 -47 -0 -0 -0 -0 -2 -10 -12 -29 -71 -0 -0
-0 -0 -0 -0 -0 -0 -1 -2 -0 -0 -8 -34 -49 -70 -11 -3 -14 -24 -43 -65 -126 -118 -233 -177 -81 -51 -34 -74 -86 -78 -51 -25 -8 -8 -35 -71 -68 -50 -4 -0 -0 -0 -0 -2 -4 -16 -54 -91 -0
-0 -0 -0 -0 -0 -2 -0 -0 -0 -0 -17 -17 -17 -59 -46 -17 -40 -2 -7 -65 -141 -191 -239 -149 -80 -62 -35 -46 -55 -56 -36 -30 -23 -39 -63 -105 -94 -36 -0 -0 -0 -0 -0 -0 -3 -8 -21 -42 -79
-0 -0 -0 -0 -0 -1 -2 -0 -0 -9 -18 -28 -17 -10 -81 -130 -28 -5 -31 -52 -124 -176 -210 -162 -83 -65 -47 -27 -37 -40 -42 -48 -42 -51 -79 -91 -80 -22 -0 -0 -0 -0 -0 -0 -0 -6 -6 -15 -39
-0 -0 -0 -0 -0 -1 -0 -0 -0 -0 -0 -0 -33 -10 -35 -131 -77 -50 -76 -89 -107 -157 -138 -166 -78 -71 -60 -48 -46 -46 -50 -57 -65 -75 -96 -90 -55 -21 -0 -0 -0 -0 -0 -0 -0 -1 -2 -5 -8
-0 -0 -0 -0 -0 -0 -0 -0 -0 -0 -0 -0 -12 -24 -43 -91 -53 -71 -73 -69 -90 -129 -159 -225 -103 -85 -65 -70 -50 -55 -65 -69 -70 -87 -86 -65 -42 -15 -6 -0 -0 -0 -1 -0 -0 -0 -0 -0 -1
-0 -0 -0 -0 -0 -0 -0 -0 -0 -0 -0 -0 -1 -0 -38 -50 -36 -40 -38 -44 -70 -131 -183 -283 -273 -161 -62 -59 -65 -67 -78 -77 -74 -80 -78 -60 -40 -17 -10 -6 -1 -1 -3 -1 -0 -0 -1 -4 -3
-0 -0 -0 -0 -0 -0 -0 -0 -0 -32 -9 -6 -9 -0 -6 -30 -56 -30 -8 -19 -41 -117 -164 -275 -300 -265 -271 -209 -70 -58 -65 -66 -73 -58 -66 -62 -72 -70 -45 -4 -25 -16 -2 -2 -2 -0 -5 -8 -21
-0 -0 -0 -0 -0 -0 -0 -0 -0 -8 -24 -53 -18 -0 -16 -30 -50 -22 -3 -4 -17 -74 -120 -194 -244 -265 -250 -243 -154 -81 -98 -97 -76 -85 -78 -143 -0 -132 -121 -78 -38 -60 -38 -7 -0 -0 -0 -0 -8
-0 -0 -0 -0 -0 -0 -0 -0 -0 -0 -36 -11 -8 -5 -24 -27 -37 -1 -0 -0 -4 -50 -110 -137 -163 -176 -196 -201 -142 -202 -177 -185 -227 -220 -191 -159 -104 -90 -64 -92 -89 -84 -75 -44 -4 -1 -2 -5 -0
-0 -0 -0 -0 -0 -0 -0 -0 -0 -0 -0 -0 -0 -1 -17 -23 -22 -0 -0 -0 -0 -31 -66 -88 -118 -83 -132 -95 -137 -208 -135 -143 -157 -108 -92 -106 -55 -47 -81 -49 -112 -23 -127 -93 -53 -18 -2 -0 -4
-0 -0 -0 -0 -0 -0 -0 -0 -0 -0 -0 -2 -2 -1 -11 -14 -9 -0 -0 -0 -0 -26 -53 -59 -106 -83 -88 -68 -91 -131 -102 -95 -96 -91 -64 -19 -35 -22 -34 -21 -3 -50 -38 -7 -21 -1 -0 -0 -1
-0 -0 -0 -0 -0 -0 -0 -0 -0 -0 -0 -14 -40 -29 -2 -9 -2 -0 -0 -1 -0 -25 -43 -55 -81 -84 -61 -46 -67 -64 -57 -60 -44 -41 -48 -33 -21 -11 -18 -2 -6 -0 -0 -2 -15 -32 -15 -7 -8
-0 -0 -0 -0 -0 -0 -0 -0 -0 -0 -0 -42 -0 -10 -0 -0 -2 -0 -0 -1 -0 -12 -42 -50 -68 -52 -60 -22 -4 -37 -27 -27 -37 -30 -28 -40 -15 -0 -6 -14 -9 -7 -7 -1 -1 -4 -1 -5 -0
-0 -0 -0 -0 -0 -0 -0 -0 -0 -0 -0 -0 -0 -0 -13 -0 -0 -0 -2 -4 -0 -4 -18 -43 -53 -58 -44 -43 -33 -16 -26 -38 -27 -25 -10 -25 -13 -1 -2 -5 -0 -1 -0 -18 -1 -0 -1 -0 -0
-0 -0 -0 -0 -0 -0 -0 -0 -0 -0 -0 -0 -0 -0 -0 -23 -0 -0 -0 -6 -1 -3 -23 -44 -43 -56 -67 -52 -41 -47 -37 -30 -42 -0 -12 -37 -39 -23 -6 -16 -1 -2 -0 -0 -0 -2 -11 -0 -0
-0 -0 -0 -0 -0 -0 -0 -0 -0 -0 -0 -0 -0 -0 -0 -0 -38 -7 -2 -3 -22 -3 -14 -37 -39 -36 -65 -60 -74 -51 -8 -40 -23 -6 -6 -3 -36 -44 -15 -26 -3 -0 -1 -0 -0 -0 -19 -10 -6
-0 -0 -0 -0 -0 -0 -0 -0 -0 -0 -0 -0 -0 -0 -0 -0 -56 -222 -159 -151 -67 -18 -2 -1 -13 -13 -6 -23 -51 -52 -47 -42 -39 -11 -7 -1 -31 -38 -25 -22 -0 -0 -1 -0 -0 -2 -20 -33 -0
-0 -0 -0 -0 -0 -0 -0 -0 -0 -0 -0 -0 -0 -0 -0 -0 -266 -208 -181 -187 -243 -112 -24 -35 -19 -0 -2 -23 -24 -36 -26 -14 -22 -19 -0 -0 -15 -24 -3 -22 -0 -0 -0 -0 -0 -0 -0 -0 -1
-0 -0 -0 -0 -0 -0 -0 -0 -0 -0 -0 -0 -0 -0 -27 -164 -149 -154 -157 -156 -182 -194 -181 -130 -78 -13 -17 -21 -11 -5 -9 -12 -4 -8 -1 -12 -17 -10 -6 -8 -0 -0 -0 -0 -0 -0 -0 -0 -3
-0 -0 -0 -0 -0 -0 -0 -0 -0 -0 -0 -0 -0 -0 -0 -121 -133 -145 -154 -141 -142 -178 -199 -209 -223 -119 -18 -3 -1 -2 -15 -15 -11 -17 -9 -12 -26 -23 -7 -14 -2 -0 -0 -1 -0 -0 -0 -0 -26
-0 -0 -0 -0 -0 -0 -0 -0 -1 -0 -0 -0 -0 -0 -0 -129 -137 -146 -162 -178 -184 -175 -189 -228 -287 -307 -257 -27 -8 -0 -17 -28 -22 -9 -1 -0 -13 -19 -14 -8 -6 -0 -0 -0 -1 -0 -0 -0 -13
-0 -0 -0 -0 -0 -0 -0 -0 -0 -9 -2 -1 -0 -0 -0 -0 -0 -0 -198 -241 -235 -233 -221 -214 -148 -219 -314 -299 -31 -17 -0 -19 -24 -4 -2 -6 -2 -7 -9 -6 -2 -1 -3 -0 -0 -0 -0 -1 -0
-0 -0 -0 -0 -0 -0 -0 -0 -0 -0 -0 -0 -0 -0 -0 -0 -0 -0 -0 -0 -174 -260 -262 -286 -193 -117 -98 -177 -195 -27 -2 -0 -0 -1 -0 -0 -0 -0 -0 -14 -0 -0 -0 -2 -0 -0 -0 -0 -9
-0 -0 -0 -0 -0 -0 -0 -0 -2 -6 -1 -12 -0 -0 -0 -0 -0 -0 -0 -0 -97 -260 -270 -275 -296 -247 -136 -71 -61 -77 -35 -0 -0 -0 -0 -2 -0 -0 -1 -0 -0 -6 -0 -1 -0 -0 -0 -0 -0
-1 -1 -0 -0 -0 -0 -47 -1 -28 -9 -19 -22 -0 -0 -0 -0 -0 -0 -0 -0 -0 -126 -270 -272 -275 -276 -273 -202 -88 -28 -18 -30 -15 -0 -0 -7 -0 -1 -11 -8 -0 -5 -12 -6 -0 -0 -0 -0 -0
-0 -0 -4 -0 -1 -0 -2 -51 -50 -35 -0 -0 -0 -0 -0 -0 -0 -0 -0 -0 -0 -0 -257 -263 -268 -258 -271 -255 -217 -120 -25 -3 -0 -17 -2 -1 -5 -4 -2 -21 -9 -1 -1 -2 -0 -0 -0 -0 -0
-8 -10 -0 -0 -0 -0 -0 -0 -0 -93 -0 -0 -0 -0 -0 -0 -0 -0 -0 -0 -0 -0 -0 -0 -176 -295 -227 -226 -214 -165 -118 -78 -7 -10 -5 -0 -5 -38 -8 -10 -20 -0 -0 -0 -0 -0 -0 -0 -0
-39 -20 -36 -28 -14 -5 -0 -1 -25 -1 -52 -0 -0 -0 -0 -0 -0 -0 -0 -0 -0 -0 -0 -0 -0 -0 -0 -5 -210 -194 -158 -134 -105 -70 -23 -51 -55 -12 -13 -2 -9 -0 -0 -0 -0 -0 -0 -0 -0
-66 -0 -0 -0 -0 -6 -0 -6 -0 -35 -0 -0 -1 -0 -0 -0 -0 -0 -0 -0 -0 -0 -0 -0 -0 -0 -0 -0 -0 -6 -161 -155 -129 -119 -93 -92 -80 -160 -103 -15 -2 -0 -0 -0 -0 -0 -0 -0 -0
Wind_Speed
12 13 10 8 9 10 17 7 6 10 9 11 4 11 13 6 14 6 8 10 17 18 18 16 12 14 14 18 17 17 16 14 13 13 13 11 11 11 12 11 13 14 15 14 14 14 14 14 14
13 8 8 9 11 16 7 6 9 13 15 6 7 2 4 12 9 11 11 14 18 19 17 16 13 14 14 16 17 16 16 15 13 13 12 12 11 11 12 11 12 13 13 13 13 13 13 13 12
13 9 11 10 15 14 7 5 7 8 6 3 5 1 5 7 4 7 17 17 18 17 17 17 13 14 14 15 16 16 15 15 14 14 13 12 11 11 10 10 11 12 12 12 11 11 11 11 11
8 7 8 11 19 15 8 8 5 3 7 1 3 12 8 5 3 4 16 18 17 18 17 18 14 13 14 15 15 15 15 15 14 13 12 12 11 10 10 9 7 10 11 11 10 10 9 9 9
9 9 12 14 18 11 3 3 3 6 3 7 2 11 6 5 3 14 17 16 17 17 18 17 14 13 14 15 15 14 14 14 14 13 12 11 11 10 9 8 8 8 9 9 9 9 8 8 7
9 8 13 14 16 5 1 2 7 8 9 6 8 3 10 11 13 13 13 15 15 16 18 17 14 14 13 15 13 13 13 12 12 12 12 11 11 10 10 9 7 7 8 9 8 8 7 7 6
15 12 15 20 15 9 6 2 10 10 11 7 3 6 11 12 13 14 14 14 14 15 17 16 16 13 11 12 12 12 12 12 11 11 11 10 10 9 9 9 8 6 4 6 8 8 8 6 6
13 14 20 17 14 6 8 10 4 8 10 10 3 5 15 15 14 13 13 14 15 15 17 16 16 16 14 13 11 11 11 11 11 11 10 10 9 9 9 7 8 7 6 5 8 8 7 7 7
9 13 15 17 17 7 6 9 7 5 9 1 9 9 10 16 16 14 12 13 13 13 16 16 16 16 15 15 12 10 10 11 10 10 10 10 9 10 11 6 13 9 7 6 6 8 8 8 8
13 13 20 11 7 4 1 6 4 6 14 9 8 11 8 13 14 15 15 14 16 14 15 15 15 16 15 12 14 12 11 10 11 11 12 10 9 9 6 12 11 9 8 7 7 8 9 10 9
14 17 12 2 6 7 10 8 7 12 16 14 13 17 12 10 13 14 14 15 16 17 14 15 12 12 14 12 11 8 8 8 8 11 11 10 7 7 7 8 7 7 10 8 10 9 9 13 8
16 14 14 14 4 10 16 14 5 14 15 3 9 14 12 11 13 13 12 14 15 16 15 14 14 9 11 9 9 10 9 10 9 10 11 7 5 6 6 6 9 8 8 8 9 8 10 10 5
14 18 10 14 10 14 14 12 15 11 18 6 5 3 10 10 12 12 12 12 13 14 13 14 16 13 11 9 9 9 10 9 10 10 11 9 9 7 7 5 5 5 6 7 6 7 4 5 8
7 16 10 14 16 16 15 18 17 11 15 7 6 11 10 9 12 10 7 8 11 13 16 16 15 13 13 10 9 9 7 6 7 8 9 12 8 6 7 6 6 6 5 5 6 6 5 7 8
10 12 14 16 16 17 14 19 20 15 13 13 13 10 9 13 12 12 8 6 8 9 10 11 12 14 13 13 11 8 8 10 9 9 9 11 10 7 8 7 6 6 6 7 5 6 6 7 7
14 16 17 18 18 17 14 18 21 16 15 12 14 12 10 9 14 13 9 6 7 8 11 12 12 14 13 11 10 9 9 3 6 9 9 12 12 10 9 8 7 7 6 7 8 7 5 6 7
17 14 19 17 12 14 16 19 18 22 18 11 14 13 11 11 14 2 3 8 8 10 12 11 12 12 14 12 10 11 10 10 9 9 9 12 12 13 10 9 8 6 7 7 7 8 4 4 5
15 17 15 16 11 15 17 19 18 9 7 11 16 15 12 9 10 7 6 6 8 10 9 10 11 12 11 10 10 9 10 10 10 9 10 11 11 13 11 9 7 7 8 8 9 4 4 5 6
14 16 15 10 15 11 18 18 20 8 9 11 7 8 9 5 8 3 4 2 2 6 7 10 12 10 10 10 11 10 11 10 10 10 11 11 12 13 10 10 9 8 9 8 6 6 8 9 6
14 17 17 16 13 11 16 18 15 7 9 5 5 6 7 9 8 6 6 5 4 1 4 7 10 11 11 10 9 9 9 10 11 10 11 12 14 12 11 10 9 10 9 8 8 7 9 7 8
17 18 17 17 13 13 16 21 12 10 7 6 5 8 6 6 10 8 10 9 8 8 5 1 6 9 11 12 8 7 8 7 9 11 10 11 13 13 12 12 10 8 8 8 8 8 10 9 4
18 19 16 18 14 14 21 17 22 20 18 15 13 12 11 11 10 11 11 11 12 12 10 9 6 5 9 11 11 12 11 11 11 10 11 11 14 13 13 12 11 8 9 8 7 8 9 10 8
17 18 17 14 17 18 23 18 16 24 19 16 13 11 10 8 9 10 11 11 12 12 12 12 11 8 4 8 11 10 12 12 11 10 9 10 10 13 14 13 11 10 9 8 7 7 9 7 10
13 19 20 15 16 18 21 21 19 20 23 21 13 10 10 10 10 10 9 10 11 12 12 13 14 14 11 6 7 10 13 12 12 10 11 12 11 11 13 14 11 10 9 8 8 8 9 10 8
13 17 12 17 16 19 21 22 18 1 24 22 16 12 9 9 9 9 9 10 10 11 12 12 14 14 14 14 11 6 11 11 13 13 12 12 11 11 12 13 12 11 10 9 9 8 9 10 9
20 19 16 23 17 19 7 15 5 14 17 19 15 12 10 7 9 8 9 8 9 10 11 12 12 13 14 14 14 12 11 9 9 13 14 10 12 11 16 15 12 12 13 11 10 10 10 9 8
22 20 18 26 27 21 13 15 7 8 12 13 15 13 9 8 7 5 8 8 8 8 9 10 10 10 12 13 12 12 11 11 10 12 9 12 16 7 11 18 14 13 13 13 12 11 12 10 9
15 20 14 13 20 26 23 19 14 25 20 17 14 12 8 5 4 6 7 8 8 8 8 10 10 10 9 9 10 11 12 12 12 12 12 11 12 14 8 14 15 14 14 14 14 13 13 11 11
7 9 11 12 4 7 14 9 16 8 14 13 12 9 6 1 4 6 7 7 9 10 10 9 9 10 9 10 9 6 9 11 11 10 11 11 10 13 16 11 14 15 15 14 14 13 14 15 12
5 6 5 5 9 10 8 2 16 10 3 8 5 6 3 3 6 8 6 6 7 8 9 10 9 9 10 10 10 11 10 9 9 10 11 11 12 9 13 17 12 17 16 15 16 17 15 17 16
Wind_Direction
245 223 239 261 247 231 248 128 5 116 141 69 18 14 27 357 12 46 127 170 149 135 138 142 136 140 144 138 137 138 140 141 135 129 124 121 117 116 116 117 119 118 119 116 111 108 103 96 92
273 252 234 273 255 241 138 98 188 67 70 95 89 333 54 70 29 105 147 153 141 133 143 142 140 139 145 138 138 140 141 138 132 127 127 128 125 123 125 124 125 125 123 120 118 116 110 106 102
259 256 269 234 246 273 77 135 86 103 123 160 130 263 34 61 27 139 118 146 135 142 154 131 140 139 143 142 142 141 140 138 137 136 137 135 130 128 127 131 134 133 133 131 129 123 118 114 110
223 207 246 256 260 269 65 93 23 179 132 131 357 96 116 2 111 113 141 148 139 146 147 132 139 144 145 147 144 145 146 141 140 139 139 134 133 134 131 134 138 142 144 144 142 135 131 124 114
243 263 254 236 262 283 94 30 301 284 96 143 190 102 82 115 108 129 150 151 161 149 130 145 140 142 147 151 148 148 148 146 144 142 140 138 140 140 136 141 149 151 152 154 155 149 147 141 136
231 259 252 246 232 239 205 334 274 272 274 107 162 249 83 135 150 145 155 157 160 145 132 141 143 143 153 151 153 153 151 147 147 145 146 147 147 146 145 149 153 162 174 161 151 156 154 155 156
251 241 256 268 281 189 220 4 254 260 235 161 37 234 105 151 143 153 163 164 150 149 144 154 160 150 147 149 153 157 153 151 149 150 151 151 150 149 151 153 155 162 153 163 162 165 162 163 162
248 268 273 259 273 222 110 265 282 260 250 66 50 299 141 140 151 165 174 168 157 159 149 160 163 165 171 165 159 161 159 154 152 156 152 149 148 155 157 157 160 166 174 179 169 177 180 174 176
242 266 252 249 247 219 139 249 149 329 288 161 171 38 80 133 161 177 165 167 166 169 152 162 167 167 181 167 165 165 169 159 155 159 155 163 188 177 160 126 143 164 183 185 197 190 190 192 198
235 232 253 298 236 283 77 267 261 233 215 175 159 97 125 151 175 177 175 174 172 175 162 166 176 166 184 166 155 188 181 189 191 186 175 211 212 173 195 143 153 170 187 188 196 225 200 206 218
224 254 294 324 313 304 292 284 236 258 231 210 193 155 152 168 184 191 185 175 180 174 173 171 183 159 191 180 157 186 187 198 196 195 178 221 194 171 207 156 177 195 194 205 190 193 219 220 212
243 243 280 276 217 242 252 257 297 250 257 273 156 124 147 177 181 198 192 172 177 173 175 179 171 164 212 183 178 188 203 193 194 199 191 206 227 185 205 223 185 193 174 229 199 205 216 243 204
235 266 234 248 251 247 250 260 251 234 254 81 53 176 161 177 186 204 191 170 175 173 172 192 171 181 203 217 183 207 208 191 200 188 190 215 209 205 210 232 259 217 216 197 239 239 254 241 256
237 243 255 241 238 238 239 248 238 248 248 151 215 203 179 186 194 198 200 190 178 174 173 192 180 177 201 213 240 202 211 219 223 204 197 210 216 200 218 212 219 246 243 241 230 223 229 221 259
270 258 241 245 242 244 230 245 241 246 209 212 205 230 217 172 190 193 181 215 185 181 183 191 190 178 203 203 213 232 215 220 203 222 196 193 217 211 234 215 216 224 228 246 235 270 197 262 246
246 244 253 227 214 227 232 243 232 218 235 212 235 220 215 207 193 198 189 186 199 203 187 190 197 185 192 213 205 225 227 251 245 217 205 205 205 232 199 235 215 229 223 214 239 222 234 245 234
225 254 243 258 182 221 207 247 250 203 220 216 238 228 230 214 209 179 115 199 204 196 188 203 209 211 189 202 215 217 225 216 231 218 211 185 212 206 229 222 221 216 230 233 229 245 249 238 274
250 234 230 252 173 226 226 237 253 160 215 223 245 250 250 227 86 40 22 343 313 197 209 201 206 217 206 192 210 227 222 223 224 221 219 186 206 212 200 233 227 199 229 227 226 234 269 266 277
302 288 287 268 252 199 239 227 244 149 228 228 234 238 239 104 79 88 53 350 288 259 229 215 219 209 210 209 206 212 221 219 219 227 212 208 209 207 207 225 193 219 240 234 252 215 238 268 258
261 262 261 258 259 219 248 247 215 154 215 184 186 167 151 151 132 106 88 84 79 111 248 239 237 217 211 220 222 231 216 225 220 220 208 204 209 214 204 223 219 191 233 218 234 244 265 212 237
249 258 261 259 252 223 244 246 166 166 171 162 138 120 113 118 118 98 78 68 74 70 50 322 276 267 228 231 226 224 252 240 235 219 206 197 212 212 209 202 236 195 223 237 201 221 234 239 224
246 247 246 270 248 243 210 246 189 186 191 182 159 154 138 137 113 96 80 59 60 50 52 43 17 302 262 250 238 248 229 230 222 232 218 197 200 213 208 217 213 224 204 239 195 207 229 236 250
259 277 272 237 250 252 247 219 271 178 191 181 161 141 132 116 92 83 82 67 49 55 47 35 33 31 348 275 277 246 240 253 241 229 233 196 176 212 215 210 211 213 221 218 233 208 202 221 247
273 257 250 255 255 245 240 253 219 197 188 172 156 155 140 122 106 86 78 70 51 40 43 51 34 24 15 4 295 265 266 287 280 244 238 187 197 195 216 207 208 209 216 233 201 229 207 229 249
226 246 239 234 226 241 245 245 247 259 186 141 157 156 141 127 99 86 59 61 56 46 33 32 29 30 19 11 2 300 274 262 266 279 259 247 198 187 201 212 201 202 208 212 208 193 214 217 240
250 225 243 252 252 246 320 263 331 82 134 157 151 150 140 114 97 77 69 50 48 43 37 31 29 23 18 15 8 1 347 307 277 233 266 276 239 206 181 189 201 210 200 210 202 190 211 199 220
272 264 235 265 266 271 253 222 147 167 154 160 165 157 140 121 108 80 80 39 40 29 46 29 18 23 20 9 7 6 3 358 343 329 316 279 274 313 200 171 195 203 205 200 197 212 193 199 199
336 317 298 268 262 254 251 242 206 181 181 175 166 159 132 135 107 76 40 45 16 19 25 30 9 8 18 8 7 5 359 360 357 348 351 307 290 299 279 185 185 202 204 199 203 202 189 208 194
319 331 349 305 187 255 287 277 25 143 174 166 169 129 131 99 54 56 40 33 10 9 14 14 3 351 4 3 351 360 351 351 356 355 351 344 331 322 288 211 198 211 204 201 201 213 198 194 209
236 235 248 290 342 317 267 313 350 148 303 127 121 138 102 24 17 18 16 10 14 2 1 352 353 342 356 351 341 340 346 339 340 339 343 347 352 341 338 298 250 212 216 203 203 210 207 193 201